Starlink 2565

operational
NORAD ID: 48280 Int'l Des: 2021-036 Owner: SPXS Country: US Constellation: starlink
LEOCIRCULARSTARLINK_TYPE

About Starlink 2565

Description loading...

Live Position

Loading 3D Globe...

Upcoming Passes

Altitude History

Altitude vs Time

uPlot chart will show altitude changes over time

Two-Line Element Set

1 48280U 21036E 26102.91668981 .00050498 00000-0 17539-2 0 9996
2 48280 53.1544 301.9651 0001791 105.8599 355.4549 15.29291531 5936
Epoch: Apr 12, 2026 • Age: 7 hours

Current Status

Altitude 478.4 km
Velocity 7.63 km/s
Sub-Earth Point 5.33°N, 21.64°E
Launch Date Apr 29, 2021
Age 4.9 years
Type internet

Technical Details

Classification Payload
Mass 260.00 kg
Dry Mass 248.00 kg
Total Mass 260.00 kg
Length 0.20 m
Diameter 2.80 m
Span 9.00 m
Shape Box + pan
Manufacturer SPXS
Bus Type Starlink
Phase Status In Orbit
Owner/State SPXS/US

Large Constellations

Loading constellations...